Location: Grums
(59.3529°N, 13.1129°E)
Time: 02:46:18
(UTC+01:00)

SEEDS - Pass Details

Date: 02 December 2021
Orbit: 584 x 600 km, 97.6° (Epoch: 27 January)

Event Time Altitude Azimuth Distance (km) Brightness Sun altitude
Rises 03:21:56 0° 25° (NNE) 2,829 ? -38.1°
Reaches altitude 10° 03:25:02 10° 51° (NE) 1,921 ? -37.8°
Enters shadow 03:25:56 13° 63° (ENE) 1,756 ? -37.7°
